Lid_Strength_Index
11 12 12 12 12 12 12 12 11 12 12 12 12 12 12 13 13 14 14 15 15 15
13 13 14 14 13 13 13 13 13 13 14 13 14 14 14 15 15 15 16 16 16 16
14 14 14 14 15 15 15 15 15 15 15 15 16 16 16 16 17 17 17 17 17 17
14 15 15 16 17 17 16 17 17 17 17 17 17 17 17 18 18 19 19 19 19 19
15 16 17 17 17 17 17 17 17 17 17 18 18 18 19 19 19 20 20 19 19 19
16 18 18 18 18 18 18 18 19 19 19 19 19 19 19 19 20 20 20 19 19 19
18 18 19 18 18 18 18 18 18 19 20 20 20 19 19 19 19 19 19 19 19 19
18 18 19 19 19 19 18 18 18 18 18 18 19 19 20 20 20 20 19 18 17 17
19 19 19 19 19 18 18 18 18 18 18 18 18 18 18 18 19 18 18 19 17 16
19 20 20 20 19 19 19 18 18 18 18 17 16 16 16 17 17 18 18 19 19 18
20 20 20 20 20 20 20 19 19 17 16 15 15 15 15 16 17 18 18 19 19 20
20 20 20 21 21 20 19 19 18 18 17 16 16 14 15 17 18 19 19 19 20 20
21 20 20 20 20 19 19 19 18 18 18 17 17 15 15 16 18 19 20 20 20 19
20 20 20 20 20 20 20 20 20 20 19 19 18 17 16 16 18 19 20 21 22 22